When you browse on this site, cookies collect data to enhance your experience and personalize the content and advertising you see.
Visit our Privacy Policy to learn more. By continuing to use the site, you agree to this use of cookies and data.
  • In Portugal
  • List of Countries
  • For 7 days
  • Water Temperature
  • Satellite Maps
  • Weather Map
  • Weather Widgets
  • user-avatar
    Login

    Hourly Weather Melbourne

    Today, 21 January, Monday

    Time Temperature Precipitation Wind Pressure Humidity
    00:00 +19°C° 0 mm 3 mps 762 mmHg 85%
    01:00 +19°C° 0 mm 2 mps 762 mmHg 87%
    02:00 +18°C° 0 mm 2 mps 762 mmHg 88%
    03:00 +18°C° 0 mm 2 mps 762 mmHg 88%
    04:00 +18°C° 0 mm 2 mps 761 mmHg 89%
    05:00 +19°C° 0 mm 2 mps 761 mmHg 88%
    06:00 +20°C° 0 mm 1 mps 761 mmHg 86%
    07:00 +20°C° 0 mm 1 mps 761 mmHg 85%
    08:00 +22°C° 0 mm 1 mps 761 mmHg 76%
    09:00 +24°C° 0 mm 1 mps 761 mmHg 67%
    10:00 +26°C° 0 mm 2 mps 761 mmHg 58%
    11:00 +28°C° 0 mm 2 mps 760 mmHg 53%
    12:00 +30°C° 0 mm 2 mps 760 mmHg 48%
    13:00 +33°C° 0 mm 3 mps 759 mmHg 43%
    14:00 +33°C° 0 mm 3 mps 759 mmHg 43%
    15:00 +33°C° 0 mm 4 mps 758 mmHg 44%
    16:00 +33°C° 0 mm 4 mps 758 mmHg 44%
    17:00 +30°C° 0 mm 4 mps 758 mmHg 49%
    18:00 +28°C° 0 mm 4 mps 758 mmHg 55%
    19:00 +27°C° 0 mm 4 mps 758 mmHg 60%
    20:00 +25°C° 0 mm 3 mps 759 mmHg 66%
    21:00 +24°C° 0 mm 3 mps 759 mmHg 72%
    22:00 +23°C° 0 mm 2 mps 759 mmHg 78%
    23:00 +21°C° 0 mm 2 mps 759 mmHg 81%

    Tomorrow, 22 January, Tuesday

    Time Temperature Precipitation Wind Pressure Humidity
    00:00 +21°C° 0 mm 1 mps 759 mmHg 84%
    01:00 +21°C° 0 mm 1 mps 759 mmHg 86%
    02:00 +21°C° 0 mm 1 mps 758 mmHg 87%
    03:00 +20°C° 0 mm 1 mps 758 mmHg 89%
    04:00 +20°C° 0 mm 1 mps 758 mmHg 90%
    05:00 +19°C° 0 mm 0 mps 758 mmHg 86%
    06:00 +20°C° 0 mm 0 mps 758 mmHg 82%
    07:00 +20°C° 0 mm 0 mps 758 mmHg 78%
    08:00 +24°C° 0 mm 0 mps 758 mmHg 66%
    09:00 +27°C° 0 mm 0 mps 758 mmHg 54%
    10:00 +33°C° 0 mm 1 mps 758 mmHg 42%
    11:00 +35°C° 0 mm 1 mps 757 mmHg 36%
    12:00 +37°C° 0 mm 2 mps 757 mmHg 31%
    13:00 +39°C° 0 mm 3 mps 756 mmHg 26%
    14:00 +39°C° 0 mm 3 mps 756 mmHg 26%
    15:00 +40°C° 0 mm 4 mps 755 mmHg 27%
    16:00 +38°C° 0 mm 4 mps 755 mmHg 27%
    17:00 +36°C° 0 mm 4 mps 755 mmHg 32%
    18:00 +34°C° 0 mm 4 mps 755 mmHg 36%
    19:00 +32°C° 0 mm 4 mps 755 mmHg 41%
    20:00 +29°C° 0 mm 3 mps 756 mmHg 45%
    21:00 +28°C° 0 mm 3 mps 757 mmHg 50%
    22:00 +26°C° 0 mm 2 mps 757 mmHg 54%
    23:00 +25°C° 0 mm 2 mps 757 mmHg 57%

    Day after tomorrow, 23 January, Wednesday

    Time Temperature Precipitation Wind Pressure Humidity
    00:00 +24°C° 0 mm 2 mps 757 mmHg 59%
    01:00 +23°C° 0 mm 2 mps 757 mmHg 61%
    02:00 +23°C° 0 mm 2 mps 757 mmHg 64%
    03:00 +21°C° 0 mm 2 mps 757 mmHg 66%
    04:00 +21°C° 0 mm 2 mps 757 mmHg 68%
    05:00 +21°C° 0 mm 2 mps 758 mmHg 70%
    06:00 +21°C° 0 mm 3 mps 758 mmHg 72%
    07:00 +21°C° 0 mm 3 mps 759 mmHg 73%
    08:00 +24°C° 0 mm 3 mps 759 mmHg 67%
    09:00 +25°C° 0 mm 3 mps 759 mmHg 61%
    10:00 +27°C° 0 mm 4 mps 758 mmHg 55%
    11:00 +28°C° 0 mm 4 mps 758 mmHg 52%
    12:00 +29°C° 0 mm 5 mps 758 mmHg 48%
    13:00 +30°C° 0 mm 6 mps 758 mmHg 45%
    14:00 +29°C° 0 mm 6 mps 758 mmHg 47%
    15:00 +28°C° 0 mm 6 mps 758 mmHg 49%
    16:00 +27°C° 0 mm 6 mps 758 mmHg 51%
    17:00 +26°C° 0 mm 6 mps 758 mmHg 55%
    18:00 +25°C° 0 mm 5 mps 758 mmHg 60%
    19:00 +23°C° 0 mm 4 mps 759 mmHg 65%
    20:00 +22°C° 0 mm 4 mps 759 mmHg 70%
    21:00 +21°C° 0 mm 4 mps 759 mmHg 75%
    22:00 +20°C° 0 mm 3 mps 760 mmHg 80%
    23:00 +20°C° 0 mm 3 mps 760 mmHg 82%

    24 January, Thursday

    Time Temperature Precipitation Wind Pressure Humidity
    00:00 +20°C° 0 mm 2 mps 759 mmHg 83%
    01:00 +21°C° 0 mm 1 mps 759 mmHg 85%
    02:00 +20°C° 0 mm 1 mps 759 mmHg 86%
    03:00 +20°C° 0 mm 1 mps 759 mmHg 88%
    04:00 +20°C° 0 mm 1 mps 758 mmHg 89%
    05:00 +21°C° 0 mm 1 mps 758 mmHg 85%
    06:00 +21°C° 0 mm 1 mps 759 mmHg 81%
    07:00 +22°C° 0 mm 1 mps 759 mmHg 77%
    08:00 +25°C° 0 mm 1 mps 758 mmHg 66%
    09:00 +29°C° 0 mm 1 mps 758 mmHg 55%
    10:00 +32°C° 0 mm 1 mps 757 mmHg 44%
    11:00 +35°C° 0 mm 1 mps 757 mmHg 37%
    12:00 +39°C° 0 mm 1 mps 756 mmHg 30%
    13:00 +42°C° 0 mm 1 mps 755 mmHg 23%
    14:00 +43°C° 0 mm 1 mps 755 mmHg 20%
    15:00 +45°C° 0 mm 2 mps 754 mmHg 18%
    16:00 +45°C° 0 mm 2 mps 753 mmHg 16%
    17:00 +43°C° 0 mm 2 mps 753 mmHg 19%
    18:00 +42°C° 0 mm 3 mps 753 mmHg 22%
    19:00 +40°C° 0 mm 3 mps 753 mmHg 25%
    20:00 +38°C° 0 mm 3 mps 753 mmHg 28%
    21:00 +36°C° 0 mm 3 mps 753 mmHg 31%
    22:00 +35°C° 0 mm 3 mps 753 mmHg 34%
    23:00 +35°C° 0 mm 4 mps 753 mmHg 33%

    25 January, Friday

    Time Temperature Precipitation Wind Pressure Humidity
    00:00 +35°C° 0 mm 4 mps 752 mmHg 32%
    01:00 +36°C° 0 mm 5 mps 752 mmHg 31%
    02:00 +35°C° 0 mm 6 mps 751 mmHg 34%
    03:00 +35°C° 0 mm 7 mps 751 mmHg 37%
    04:00 +34°C° 0 mm 8 mps 751 mmHg 40%
    05:00 +35°C° 0 mm 9 mps 751 mmHg 41%
    06:00 +35°C° 0 mm 9 mps 751 mmHg 42%
    07:00 +35°C° 0 mm 9 mps 752 mmHg 42%
    08:00 +38°C° 0 mm 9 mps 752 mmHg 38%
    09:00 +40°C° 0 mm 9 mps 752 mmHg 33%
    10:00 +43°C° 0 mm 8 mps 752 mmHg 28%
    11:00 +45°C° 0 mm 7 mps 751 mmHg 23%
    12:00 +47°C° 0 mm 6 mps 751 mmHg 18%
    13:00 +51°C° 0 mm 6 mps 751 mmHg 12%
    14:00 +45°C° 0 mm 5 mps 751 mmHg 21%
    15:00 +40°C° 0 mm 5 mps 751 mmHg 30%
    16:00 +35°C° 0 mm 4 mps 751 mmHg 39%
    17:00 +33°C° 0 mm 4 mps 752 mmHg 44%
    18:00 +30°C° 0 mm 4 mps 752 mmHg 48%
    19:00 +28°C° 0 mm 4 mps 753 mmHg 53%
    20:00 +27°C° 0.3 mm 4 mps 754 mmHg 58%
    21:00 +26°C° 0.3 mm 3 mps 755 mmHg 63%
    22:00 +24°C° 0.3 mm 3 mps 755 mmHg 68%
    23:00 +24°C° 0 mm 3 mps 755 mmHg 70%

    26 January, Saturday

    Time Temperature Precipitation Wind Pressure Humidity
    00:00 +22°C° 0 mm 3 mps 755 mmHg 71%
    01:00 +22°C° 0 mm 3 mps 755 mmHg 73%
    02:00 +22°C° 0 mm 3 mps 755 mmHg 74%
    03:00 +21°C° 0 mm 3 mps 755 mmHg 75%
    04:00 +21°C° 0 mm 3 mps 755 mmHg 76%
    05:00 +21°C° 0 mm 2 mps 756 mmHg 76%
    06:00 +21°C° 0 mm 2 mps 756 mmHg 75%
    07:00 +20°C° 0 mm 2 mps 757 mmHg 75%
    08:00 +23°C° 0 mm 2 mps 756 mmHg 68%
    09:00 +24°C° 0 mm 2 mps 756 mmHg 62%
    10:00 +25°C° 0 mm 2 mps 756 mmHg 55%
    11:00 +27°C° 0 mm 3 mps 756 mmHg 50%
    12:00 +28°C° 0 mm 3 mps 755 mmHg 45%
    13:00 +30°C° 0 mm 3 mps 755 mmHg 40%
    14:00 +30°C° 0 mm 3 mps 754 mmHg 39%
    15:00 +31°C° 0 mm 3 mps 754 mmHg 38%
    16:00 +32°C° 0 mm 4 mps 753 mmHg 37%
    17:00 +29°C° 0 mm 4 mps 754 mmHg 42%
    18:00 +28°C° 0 mm 4 mps 754 mmHg 47%
    19:00 +26°C° 0 mm 4 mps 754 mmHg 52%
    20:00 +25°C° 0 mm 4 mps 754 mmHg 57%
    21:00 +22°C° 0 mm 3 mps 755 mmHg 63%
    22:00 +20°C° 0 mm 3 mps 755 mmHg 68%
    23:00 +20°C° 0 mm 3 mps 755 mmHg 72%
    Show more